Location: Altmatt
(47.1333°N, 8.7000°E)
Time: 08:20:08
(UTC+00:00)

Cosmos 1862 Rocket - Pass Details

Date: 13 July 2020
Orbit: 605 x 633 km, 82.5° (Epoch: 05 August)

Event Time Altitude Azimuth Distance (km) Brightness Sun altitude
Rises 23:46:42 0° 352° (N) 2,925 8.5 -21.1°
Reaches altitude 10° 23:48:57 10° 355° (N) 2,017 7.3 -21.1°
Maximum altitude 23:53:25 70° 79° (E) 674 3.7 -21.0°
Enters shadow 23:54:29 49° 145° (SE) 815 3.8 -21.0°
